{"data":{"norad_id":64935,"intl_designator":"2025-158D","name":"STARLINK-34726","alt_names":[],"object_type":"PAYLOAD","status":"ACTIVE","operator":null,"country":"US","launch_date":"2025-07-27","launch_site_code":"AFWTR","launch_vehicle":null,"mission":null,"orbit_class":"UNKNOWN","rcs_meters":null,"size_class":null,"mass_kg":null,"dimensions":null,"purposes":["comms"],"wikipedia_slug":null,"has_3d_model":false,"image_url":null,"decayed_at":null,"tle_current":{"epoch":"2026-05-25T05:16:48.348192Z","epoch_age_seconds":49919,"freshness":"FRESH","line1":"1 64935U 25158D   26145.22000403  .00008324  00000+0  58012-3 0  9992","line2":"2 64935  97.4488   9.1725 0002554  91.5571 268.5949 15.05657784 46873","mean_motion":15.05657784,"eccentricity":0.0002554,"inclination_deg":97.4488,"raan_deg":9.1725,"arg_perigee_deg":91.5571,"mean_anomaly_deg":268.5949,"bstar":0.00058012,"rev_number":4687,"period_min":95.639262474002,"perigee_km":547.71796225322,"apogee_km":551.25659273416,"semimajor_km":6927.6242774937,"source":"CELESTRAK","updated_at":"2026-05-25T13:38:20.629357Z"}}}